Location: Obersdorf
(47.4079°N, 10.2781°E)
Time: 18:51:21
(UTC+02:00)

Nauka - Pass Details

Date: 01 October 2021
Orbit: 417 x 423 km, 51.6° (Epoch: 24 October)

Event Time Altitude Azimuth Distance (km) Brightness Sun altitude
Rises 20:15:44 0° 294° (WNW) 2,367 ? -13.9°
Reaches altitude 10° 20:17:50 10° 295° (WNW) 1,502 ? -14.3°
Maximum altitude 20:21:12 87° 27° (NNE) 425 ? -14.8°
Enters shadow 20:22:34 33° 113° (ESE) 724 ? -15.0°
